Retour au catalogue

STARLINK-37121

ActifCommunicationsSSO
NORAD 68383·PAYLOAD·🇺🇸 United States

Lancé Mar 26, 2026 depuis Vandenberg Space Force Base

Loading…

Prochains Passages (prochaines 24 heures)

TLE

FraisSource: CelesTrak SupGP

Époque: Sep 15, 2026, 04:25 UTC

1 68383C 26063D   26258.18451389  .00029721  00000+0  92378-3 0  2587
2 68383  97.2859  39.0678 0000839  89.1163 153.8143 15.33384142    11

Suivez STARLINK-37121 en temps réel avec AllMySat

Download on the App Store